Location: Newark
(39.6172°N, 96.8533°W)
Time: 19:35:55
(UTC+00:00)

Envisat - Pass Details

Date: 02 February 2020
Orbit: 764 x 766 km, 98.1° (Epoch: 17 February)

Event Time Altitude Azimuth Distance (km) Brightness Sun altitude
Rises 12:56:10 0° 15° (NNE) 3,238 6.2 -7.8°
Reaches altitude 10° 12:58:30 10° 18° (NNE) 2,308 5.5 -7.4°
Maximum altitude 13:03:34 68° 102° (ESE) 823 3.5 -6.5°
Drops below altitude 10° 13:08:36 10° 185° (S) 2,292 5.6 -5.5°
Sets 13:10:54 0° 188° (S) 3,214 6.4 -5.1°
